Terminal Aerodrome Forecast
Issued by NWS Duluth, MN

Home | Current Version | Previous Version | Text Only | Print | Product List | Glossary On
Versions: 1 2 3 4 5 6 7 8 9 10 11 12 13 14 15 16 17 18 19 20 21 22 23
000
FTUS43 KDLH 191200 AAB
TAFINL
TAF AMD
KINL 191247Z 1913/2012 09005KT 6SM -RA BR OVC008
     FM191500 12004KT 3SM -RA BR OVC012
     FM192000 30011KT 5SM -RA BR OVC015
     FM200100 29009KT P6SM VCSH OVC020=

USA.gov is the U.S. government's official web portal to all federal, state and local government web resources and services.